GTI9833 KONT-MMMX

Flight info

Callsign GTI9833
Flight time N/A
Altitude 37000
Route JLI V458 IPL DCT MXL UJ7 PPE UT10 ZCL UT130 DARAN DARAN3B
Aircraft B77L/H-SDE1E2E3FGHIJ2J3J4J5M1RWXY/LB1D1

Departure

Time 2026-05-06 00:02
Airport Ontario International Airport (KONT)

Arrival

Time N/A
Airport Mexico City Benito Juárez International Airport (MMMX)
Time Latitude Longitude Altitude Speed Heading
2026-05-05 23:40 34.05928 -117.61338 940 ft 0 kts 178°
2026-05-05 23:53 34.05927 -117.61338 940 ft 1 kts 178°
2026-05-05 23:54 34.05904 -117.61330 939 ft 5 kts 157°
2026-05-05 23:54 34.05875 -117.61299 938 ft 6 kts 133°
2026-05-05 23:54 34.05846 -117.61261 941 ft 8 kts 133°
2026-05-05 23:54 34.05804 -117.61191 939 ft 13 kts 117°
2026-05-05 23:55 34.05798 -117.61081 939 ft 13 kts 90°
2026-05-05 23:55 34.05796 -117.60969 939 ft 13 kts 90°
2026-05-05 23:55 34.05797 -117.60855 941 ft 14 kts 89°
2026-05-05 23:55 34.05798 -117.60738 944 ft 14 kts 89°
2026-05-05 23:56 34.05799 -117.60621 945 ft 14 kts 90°
2026-05-05 23:56 34.05798 -117.60503 944 ft 14 kts 92°
2026-05-05 23:56 34.05795 -117.60385 943 ft 14 kts 91°
2026-05-05 23:56 34.05791 -117.60269 943 ft 14 kts 94°
2026-05-05 23:57 34.05789 -117.60149 943 ft 14 kts 86°
2026-05-05 23:57 34.05796 -117.60025 939 ft 16 kts 86°
2026-05-05 23:57 34.05799 -117.59886 935 ft 17 kts 89°
2026-05-05 23:57 34.05801 -117.59738 934 ft 17 kts 90°
2026-05-05 23:58 34.05799 -117.59590 933 ft 18 kts 89°
2026-05-05 23:58 34.05800 -117.59439 933 ft 18 kts 90°
2026-05-05 23:58 34.05800 -117.59288 934 ft 18 kts 90°
2026-05-05 23:58 34.05800 -117.59138 936 ft 18 kts 90°
2026-05-05 23:59 34.05800 -117.58971 937 ft 25 kts 90°
2026-05-05 23:59 34.05800 -117.58756 940 ft 26 kts 90°
2026-05-05 23:59 34.05800 -117.58561 939 ft 19 kts 90°
2026-05-05 23:59 34.05798 -117.58413 937 ft 13 kts 91°
2026-05-06 00:00 34.05796 -117.58319 936 ft 8 kts 94°
2026-05-06 00:00 34.05788 -117.58276 937 ft 1 kts 129°
2026-05-06 00:01 34.05776 -117.58268 935 ft 9 kts 156°
2026-05-06 00:01 34.05696 -117.58273 937 ft 11 kts 206°
2026-05-06 00:02 34.05689 -117.58384 938 ft 26 kts 270°
2026-05-06 00:02 34.05689 -117.58681 937 ft 82 kts 270°
2026-05-06 00:02 34.05689 -117.60168 964 ft 178 kts 269°
2026-05-06 00:02 34.05695 -117.61674 1766 ft 173 kts 270°
2026-05-06 00:03 34.05545 -117.63148 2280 ft 192 kts 245°
2026-05-06 00:03 34.04606 -117.64402 2516 ft 219 kts 212°
2026-05-06 00:03 34.03054 -117.64873 2866 ft 243 kts 176°
2026-05-06 00:03 34.01435 -117.64148 3357 ft 260 kts 141°
2026-05-06 00:04 34.00574 -117.63130 3785 ft 266 kts 133°
2026-05-06 00:04 33.99266 -117.61487 4582 ft 271 kts 135°
2026-05-06 00:04 33.97922 -117.59855 5284 ft 277 kts 139°
2026-05-06 00:04 33.96524 -117.58290 6179 ft 278 kts 138°
2026-05-06 00:05 33.93654 -117.55077 7766 ft 284 kts 139°
2026-05-06 00:05 33.92194 -117.53442 8543 ft 288 kts 139°
2026-05-06 00:05 33.90673 -117.51915 9259 ft 291 kts 143°
2026-05-06 00:06 33.89049 -117.50443 9867 ft 296 kts 144°
2026-05-06 00:06 33.87296 -117.49089 10494 ft 307 kts 151°
2026-05-06 00:06 33.85395 -117.47793 10660 ft 322 kts 150°
2026-05-06 00:06 33.83493 -117.46158 10922 ft 348 kts 143°
2026-05-06 00:07 33.81492 -117.44334 11185 ft 370 kts 144°
2026-05-06 00:07 33.79370 -117.42506 11920 ft 379 kts 145°
2026-05-06 00:07 33.77190 -117.40683 12729 ft 384 kts 145°
2026-05-06 00:07 33.74970 -117.38844 12992 ft 391 kts 146°
2026-05-06 00:08 33.72734 -117.36983 12988 ft 390 kts 145°
2026-05-06 00:08 33.70507 -117.35130 12999 ft 390 kts 145°
2026-05-06 00:08 33.68263 -117.33258 13678 ft 395 kts 145°
2026-05-06 00:08 33.66026 -117.31398 14557 ft 399 kts 146°
2026-05-06 00:09 33.63729 -117.29492 15302 ft 405 kts 145°
2026-05-06 00:09 33.61388 -117.27558 16052 ft 411 kts 147°
2026-05-06 00:09 33.58931 -117.25782 16797 ft 415 kts 151°
2026-05-06 00:09 33.56375 -117.24124 17518 ft 420 kts 153°
2026-05-06 00:10 33.53783 -117.22473 18249 ft 424 kts 152°
2026-05-06 00:10 33.51182 -117.20768 18950 ft 428 kts 152°
2026-05-06 00:10 33.48557 -117.19037 19634 ft 433 kts 152°
2026-05-06 00:10 33.45902 -117.17324 20261 ft 433 kts 156°
2026-05-06 00:11 33.43049 -117.16310 20726 ft 436 kts 176°
2026-05-06 00:11 33.40028 -117.16173 21196 ft 438 kts 181°
2026-05-06 00:11 33.36961 -117.16071 21751 ft 443 kts 180°
2026-05-06 00:11 33.33877 -117.15925 22474 ft 444 kts 179°
2026-05-06 00:12 33.30785 -117.15750 23138 ft 446 kts 179°
2026-05-06 00:12 33.27670 -117.15556 23673 ft 451 kts 179°
2026-05-06 00:12 33.24520 -117.15358 24234 ft 456 kts 180°
2026-05-06 00:12 33.21344 -117.15153 24837 ft 458 kts 180°
2026-05-06 00:13 33.18161 -117.14942 25453 ft 460 kts 180°
2026-05-06 00:13 33.14963 -117.14734 26017 ft 464 kts 181°
2026-05-06 00:13 33.11731 -117.14660 26485 ft 458 kts 190°
2026-05-06 00:13 33.08631 -117.15041 26767 ft 460 kts 183°
2026-05-06 00:14 33.05449 -117.14198 27002 ft 472 kts 168°
2026-05-06 00:14 33.02291 -117.13206 27132 ft 469 kts 177°
2026-05-06 00:14 32.99032 -117.12969 27454 ft 469 kts 185°
2026-05-06 00:14 32.95773 -117.13028 27987 ft 469 kts 186°
2026-05-06 00:15 32.92515 -117.13089 28545 ft 470 kts 185°
2026-05-06 00:15 32.89235 -117.13021 29024 ft 473 kts 184°
2026-05-06 00:15 32.85945 -117.12878 29426 ft 475 kts 184°
2026-05-06 00:15 32.82680 -117.12692 29756 ft 478 kts 184°
2026-05-06 00:16 32.79351 -117.12461 30109 ft 479 kts 183°
2026-05-06 00:16 32.76019 -117.12236 30459 ft 481 kts 184°
2026-05-06 00:16 32.72681 -117.12016 30955 ft 478 kts 183°
2026-05-06 00:16 32.69377 -117.11344 31266 ft 493 kts 168°
2026-05-06 00:17 32.66259 -117.09468 31613 ft 514 kts 151°
2026-05-06 00:17 32.63561 -117.06614 32048 ft 527 kts 138°
2026-05-06 00:17 32.61328 -117.03141 32386 ft 532 kts 131°
2026-05-06 00:18 32.59645 -117.00201 32579 ft 537 kts 130°
2026-05-06 00:18 32.57606 -116.96472 32922 ft 538 kts 129°
2026-05-06 00:18 32.55595 -116.92734 33303 ft 538 kts 129°
2026-05-06 00:18 32.53580 -116.89015 33733 ft 535 kts 130°
2026-05-06 00:19 32.51575 -116.85376 34139 ft 534 kts 131°
2026-05-06 00:19 32.49528 -116.81711 34439 ft 533 kts 131°
2026-05-06 00:19 32.47464 -116.78065 34771 ft 533 kts 132°
2026-05-06 00:19 32.45393 -116.74438 35014 ft 533 kts 132°
2026-05-06 00:20 32.43298 -116.70793 35055 ft 536 kts 132°
2026-05-06 00:20 32.39112 -116.63499 35063 ft 533 kts 133°
2026-05-06 00:21 32.34963 -116.56265 35061 ft 530 kts 133°
2026-05-06 00:21 32.30841 -116.49088 35064 ft 530 kts 133°
2026-05-06 00:22 32.26688 -116.41883 35051 ft 531 kts 134°
2026-05-06 00:22 32.22533 -116.34679 35060 ft 531 kts 134°
2026-05-06 00:23 32.18363 -116.27452 35044 ft 534 kts 134°
2026-05-06 00:23 32.14199 -116.20258 35043 ft 534 kts 135°
2026-05-06 00:24 32.10036 -116.13041 35006 ft 531 kts 135°
2026-05-06 00:24 32.05873 -116.05870 34981 ft 529 kts 135°
2026-05-06 00:25 32.01696 -115.98707 34966 ft 532 kts 135°
2026-05-06 00:25 31.97475 -115.91523 34981 ft 535 kts 135°
2026-05-06 00:26 31.93284 -115.84343 34982 ft 536 kts 135°
2026-05-06 00:26 31.89069 -115.77125 34967 ft 533 kts 135°
2026-05-06 00:27 31.84869 -115.69958 34957 ft 531 kts 135°
2026-05-06 00:27 31.80662 -115.62805 34968 ft 532 kts 135°
2026-05-06 00:28 31.76471 -115.55680 34951 ft 534 kts 136°
2026-05-06 00:28 31.72234 -115.48514 34946 ft 534 kts 136°
2026-05-06 00:29 31.68005 -115.41355 34929 ft 532 kts 136°
2026-05-06 00:29 31.63790 -115.34222 34915 ft 532 kts 136°
2026-05-06 00:30 31.59604 -115.27161 34929 ft 530 kts 136°
2026-05-06 00:30 31.55397 -115.20085 34919 ft 527 kts 137°
2026-05-06 00:31 31.51199 -115.13037 34953 ft 526 kts 137°
2026-05-06 00:31 31.47010 -115.06000 34930 ft 527 kts 136°
2026-05-06 00:32 31.42835 -114.99028 34924 ft 526 kts 137°
2026-05-06 00:32 31.38626 -114.92019 34930 ft 527 kts 137°
2026-05-06 00:33 31.34428 -114.85004 34930 ft 526 kts 137°
2026-05-06 00:33 31.30231 -114.77994 34916 ft 526 kts 137°
2026-05-06 00:34 31.26051 -114.71050 34920 ft 526 kts 137°
2026-05-06 00:34 31.21832 -114.64063 34918 ft 525 kts 137°
2026-05-06 00:35 31.17627 -114.57102 34944 ft 524 kts 137°
2026-05-06 00:35 31.13420 -114.50151 34941 ft 524 kts 137°
2026-05-06 00:36 31.09199 -114.43194 34944 ft 526 kts 137°
2026-05-06 00:36 31.05003 -114.36276 34935 ft 526 kts 137°
2026-05-06 00:37 31.00772 -114.29310 34935 ft 527 kts 137°
2026-05-06 00:37 30.96528 -114.22352 34941 ft 528 kts 137°
2026-05-06 00:38 30.92288 -114.15391 34944 ft 526 kts 137°
2026-05-06 00:38 30.88086 -114.08483 34929 ft 525 kts 138°
2026-05-06 00:39 30.83850 -114.01574 34946 ft 523 kts 138°
2026-05-06 00:39 30.79619 -113.94694 34946 ft 522 kts 138°
2026-05-06 00:40 30.75395 -113.87836 34942 ft 521 kts 139°
2026-05-06 00:40 30.71204 -113.81024 34944 ft 520 kts 138°
2026-05-06 00:41 30.66991 -113.74192 34944 ft 519 kts 138°
2026-05-06 00:41 30.62766 -113.67438 34942 ft 518 kts 139°
2026-05-06 00:42 30.58590 -113.60624 34944 ft 518 kts 138°
2026-05-06 00:42 30.54401 -113.53836 34941 ft 517 kts 139°
2026-05-06 00:43 30.50213 -113.47111 34944 ft 518 kts 139°
2026-05-06 00:43 30.46003 -113.40302 34949 ft 520 kts 139°
2026-05-06 00:44 30.41764 -113.33520 34946 ft 519 kts 139°
2026-05-06 00:44 30.37518 -113.26750 34944 ft 519 kts 139°
2026-05-06 00:45 30.33290 -113.20025 34955 ft 521 kts 139°
2026-05-06 00:45 30.29053 -113.13231 34948 ft 519 kts 139°
2026-05-06 00:46 30.24827 -113.06457 34943 ft 519 kts 139°
2026-05-06 00:46 30.20580 -112.99700 34946 ft 520 kts 139°
2026-05-06 00:47 30.16350 -112.92998 34946 ft 519 kts 139°
2026-05-06 00:47 30.12100 -112.86260 34943 ft 519 kts 139°
2026-05-06 00:48 30.07863 -112.79498 34943 ft 519 kts 139°
2026-05-06 00:48 30.03604 -112.72769 34953 ft 520 kts 139°
2026-05-06 00:49 29.99320 -112.66042 34947 ft 520 kts 140°
2026-05-06 00:49 29.95073 -112.59361 34944 ft 519 kts 139°
2026-05-06 00:50 29.90821 -112.52660 34943 ft 517 kts 140°
2026-05-06 00:50 29.86575 -112.45990 34953 ft 515 kts 140°
2026-05-06 00:51 29.82334 -112.39343 34938 ft 514 kts 140°
2026-05-06 00:51 29.78096 -112.32716 34953 ft 514 kts 140°
2026-05-06 00:52 29.73873 -112.26125 34954 ft 516 kts 140°
2026-05-06 00:52 29.69604 -112.19467 34940 ft 518 kts 140°
2026-05-06 00:53 29.65327 -112.12797 34945 ft 519 kts 139°
2026-05-06 00:53 29.61044 -112.06130 34945 ft 519 kts 140°
2026-05-06 00:54 29.56787 -111.99521 34933 ft 518 kts 140°
2026-05-06 00:54 29.52508 -111.92884 34929 ft 516 kts 140°
2026-05-06 00:55 29.48240 -111.86275 34938 ft 515 kts 140°
2026-05-06 00:55 29.43983 -111.79690 34928 ft 511 kts 140°
2026-05-06 00:56 29.39726 -111.73141 34943 ft 514 kts 140°
2026-05-06 00:56 29.35481 -111.66605 34937 ft 516 kts 140°
2026-05-06 00:57 29.31180 -111.60002 34935 ft 519 kts 140°
2026-05-06 00:57 29.26863 -111.53366 34935 ft 519 kts 140°
2026-05-06 00:58 29.22547 -111.46759 34930 ft 518 kts 140°
2026-05-06 00:58 29.18260 -111.40192 34934 ft 518 kts 140°
2026-05-06 00:59 29.13938 -111.33598 34931 ft 518 kts 139°
2026-05-06 00:59 29.09638 -111.27016 34934 ft 516 kts 140°
2026-05-06 01:00 29.05332 -111.20450 34927 ft 516 kts 140°
2026-05-06 01:00 29.01054 -111.13940 34935 ft 515 kts 140°
2026-05-06 01:01 28.96744 -111.07403 34925 ft 515 kts 140°
2026-05-06 01:01 28.92428 -111.00873 34933 ft 516 kts 140°
2026-05-06 01:02 28.88102 -110.94337 34930 ft 516 kts 139°
2026-05-06 01:02 28.83783 -110.87789 34924 ft 517 kts 139°
2026-05-06 01:03 28.79471 -110.81290 34947 ft 517 kts 139°
2026-05-06 01:03 28.75134 -110.74757 34929 ft 517 kts 139°
2026-05-06 01:04 28.70792 -110.68215 34941 ft 517 kts 139°
2026-05-06 01:04 28.66443 -110.61684 34943 ft 518 kts 139°
2026-05-06 01:05 28.62118 -110.55203 34923 ft 518 kts 139°
2026-05-06 01:05 28.57759 -110.48686 34934 ft 518 kts 139°
2026-05-06 01:06 28.53394 -110.42161 34943 ft 518 kts 139°
2026-05-06 01:06 28.49017 -110.35635 34945 ft 520 kts 139°
2026-05-06 01:07 28.44663 -110.29136 34954 ft 520 kts 139°
2026-05-06 01:07 28.40276 -110.22591 34942 ft 521 kts 139°
2026-05-06 01:08 28.35882 -110.16060 34946 ft 520 kts 139°
2026-05-06 01:08 28.31487 -110.09547 34918 ft 520 kts 139°
2026-05-06 01:09 28.27097 -110.03043 34935 ft 519 kts 139°
2026-05-06 01:09 28.22741 -109.96597 34948 ft 518 kts 139°
2026-05-06 01:10 28.18353 -109.90117 34948 ft 518 kts 139°
2026-05-06 01:10 28.13955 -109.83646 34931 ft 520 kts 139°
2026-05-06 01:11 28.09542 -109.77151 34929 ft 521 kts 139°
2026-05-06 01:11 28.05166 -109.70706 34927 ft 520 kts 139°
2026-05-06 01:12 28.00750 -109.64220 34930 ft 518 kts 139°
2026-05-06 01:12 27.96338 -109.57767 34933 ft 518 kts 139°
2026-05-06 01:13 27.91930 -109.51305 34999 ft 517 kts 139°
2026-05-06 01:13 27.87523 -109.44864 34963 ft 517 kts 139°
2026-05-06 01:14 27.80932 -109.35257 34942 ft 519 kts 139°
2026-05-06 01:14 27.76509 -109.28821 34934 ft 518 kts 138°
2026-05-06 01:15 27.72097 -109.22394 34939 ft 517 kts 138°
2026-05-06 01:15 27.67686 -109.15994 34935 ft 517 kts 138°
2026-05-06 01:16 27.63322 -109.09647 34946 ft 513 kts 139°
2026-05-06 01:16 27.58919 -109.03303 34923 ft 514 kts 138°
2026-05-06 01:17 27.54549 -108.96933 34918 ft 513 kts 137°
2026-05-06 01:17 27.50168 -108.90618 34926 ft 510 kts 138°
2026-05-06 01:18 27.45814 -108.84380 34925 ft 511 kts 139°
2026-05-06 01:18 27.41430 -108.78093 34961 ft 511 kts 138°
2026-05-06 01:19 27.37042 -108.71784 34943 ft 511 kts 138°
2026-05-06 01:19 27.32656 -108.65486 34940 ft 510 kts 138°
2026-05-06 01:20 27.28309 -108.59248 34933 ft 509 kts 138°
2026-05-06 01:20 27.23936 -108.52994 34920 ft 509 kts 139°
2026-05-06 01:21 27.19570 -108.46750 34949 ft 509 kts 138°
2026-05-06 01:21 27.15191 -108.40508 34947 ft 510 kts 138°
2026-05-06 01:22 27.10806 -108.34254 34958 ft 510 kts 137°
2026-05-06 01:22 27.06461 -108.28070 34953 ft 507 kts 138°
2026-05-06 01:23 27.02070 -108.21863 34955 ft 508 kts 137°
2026-05-06 01:23 26.97691 -108.15634 34968 ft 508 kts 137°
2026-05-06 01:24 26.93300 -108.09415 34934 ft 509 kts 138°
2026-05-06 01:24 26.88955 -108.03287 34962 ft 504 kts 137°
2026-05-06 01:25 26.84595 -107.97115 34919 ft 507 kts 137°
2026-05-06 01:25 26.80231 -107.90936 34950 ft 506 kts 137°
2026-05-06 01:26 26.75874 -107.84791 34933 ft 503 kts 137°
2026-05-06 01:26 26.71491 -107.78765 34949 ft 497 kts 137°
2026-05-06 01:27 26.67233 -107.72716 34977 ft 498 kts 137°
2026-05-06 01:27 26.62932 -107.66638 34956 ft 498 kts 137°
2026-05-06 01:28 26.58608 -107.60560 34934 ft 501 kts 137°
2026-05-06 01:28 26.54277 -107.54501 34952 ft 503 kts 137°
2026-05-06 01:29 26.49891 -107.48388 34934 ft 505 kts 137°
2026-05-06 01:29 26.45504 -107.42266 34927 ft 506 kts 137°
2026-05-06 01:30 26.41107 -107.36134 34931 ft 506 kts 137°
2026-05-06 01:30 26.36701 -107.30003 34921 ft 506 kts 137°
2026-05-06 01:31 26.32367 -107.23979 34874 ft 498 kts 137°
2026-05-06 01:31 26.30207 -107.20967 35013 ft 500 kts 137°
2026-05-06 01:31 26.28016 -107.17923 34960 ft 506 kts 137°
2026-05-06 01:32 26.23602 -107.11821 34953 ft 504 kts 137°
2026-05-06 01:32 26.19199 -107.05738 34942 ft 505 kts 137°
2026-05-06 01:33 26.14834 -106.99685 34953 ft 504 kts 137°
2026-05-06 01:33 26.10434 -106.93633 34905 ft 503 kts 137°
2026-05-06 01:34 26.06061 -106.87585 34921 ft 501 kts 137°
2026-05-06 01:34 26.01693 -106.81568 34924 ft 500 kts 137°
2026-05-06 01:35 25.97363 -106.75613 34916 ft 494 kts 137°
2026-05-06 01:35 25.93021 -106.69642 34932 ft 501 kts 137°
2026-05-06 01:36 25.88616 -106.63613 34933 ft 502 kts 137°
2026-05-06 01:36 25.84227 -106.57593 34917 ft 500 kts 137°
2026-05-06 01:37 25.79887 -106.51652 34954 ft 498 kts 137°
2026-05-06 01:37 25.75521 -106.45687 34961 ft 498 kts 137°
2026-05-06 01:38 25.71148 -106.39733 34959 ft 498 kts 137°
2026-05-06 01:38 25.66776 -106.33768 34961 ft 498 kts 137°
2026-05-06 01:39 25.62401 -106.27813 34963 ft 499 kts 137°
2026-05-06 01:39 25.58050 -106.21883 34962 ft 500 kts 137°
2026-05-06 01:40 25.53661 -106.15927 34971 ft 499 kts 137°
2026-05-06 01:40 25.49264 -106.09975 34958 ft 500 kts 137°
2026-05-06 01:41 25.44868 -106.04012 34973 ft 500 kts 137°
2026-05-06 01:41 25.40480 -105.98099 34958 ft 501 kts 137°
2026-05-06 01:42 25.36068 -105.92125 34962 ft 502 kts 137°
2026-05-06 01:42 25.31642 -105.86152 34980 ft 502 kts 137°
2026-05-06 01:43 25.27216 -105.80189 34973 ft 501 kts 137°
2026-05-06 01:43 25.22792 -105.74247 34977 ft 501 kts 137°
2026-05-06 01:44 25.18372 -105.68312 34981 ft 500 kts 136°
2026-05-06 01:44 25.13979 -105.62406 34984 ft 504 kts 136°
2026-05-06 01:45 25.09519 -105.56435 34996 ft 504 kts 136°
2026-05-06 01:45 25.05055 -105.50457 35003 ft 504 kts 136°
2026-05-06 01:46 25.00595 -105.44491 35010 ft 504 kts 136°
2026-05-06 01:46 24.96144 -105.38539 35015 ft 502 kts 136°
2026-05-06 01:47 24.91720 -105.32649 35031 ft 502 kts 136°
2026-05-06 01:47 24.87261 -105.26705 35040 ft 503 kts 136°
2026-05-06 01:48 24.82793 -105.20762 35049 ft 504 kts 136°
2026-05-06 01:48 24.78310 -105.14814 35034 ft 505 kts 136°
2026-05-06 01:49 24.73864 -105.08908 35049 ft 504 kts 136°
2026-05-06 01:49 24.69398 -105.02971 35053 ft 503 kts 136°
2026-05-06 01:50 24.64923 -104.97053 35067 ft 504 kts 136°